[[{"header":{"parameterUnit":"m.s-1","parameterCategory":1,"la1":30.2991,"la2":30.254,"lo1":-89.0895,"lo2":-89.0444,"dy":0.0017,"dx":0.0017,"nx":28,"ny":28,"refTime":"2025-05-24T21:00:00:Z","depth":0,"parameterNumber":2,"parameterNumberName":"U-component_of_WINDS"},"data":[0,0,0,0,0,0,0,0,0,0,0,0,0,0,0,0,0,0,0,0,0,0,0,0,0,0,0,0,0,0,0,0,0,0,0,0,0,0,0,0,0,0,0,0,0,0,0,0,0,0,0,0,0,0,0,0,0,0,0.5658,0.566,0,0.5799,0.5801,0.5803,0.5877,0.5878,0.5878,0.5878,0.6024,0.6027,0.6031,0,0,0,0,0,0,0,0,0,0,0,0,0,0.5456,0.5459,0.5658,0.566,0.5662,0.5799,0.5801,0.5803,0.5877,0.5878,0.5878,0.5878,0.6022,0.6027,0.6031,0,0,0,0,0,0,0,0,0,0,0,0,0,0.5565,0.546,0.5658,0.5715,0.5722,0.5799,0.5801,0.5804,0.5877,0.5878,0.5878,0.5878,0.6021,0.6026,0.6032,0.6063,0,0,0.6049,0.6052,0,0,0,0,0,0,0,0,0.5558,0.5572,0.5705,0.5712,0.5719,0.5821,0.5783,0.589,0.5877,0.5818,0.5878,0.5878,0.5956,0.5967,0.5993,0.607,0.6076,0.605,0.6053,0.6056,0.6057,0,0,0,0,0,0,0,0.5551,0.5567,0.5714,0.5707,0.5716,0.5735,0.5751,0.5804,0.5885,0.5824,0.5829,0.5845,0.596,0.5988,0.5997,0.6078,0.605,0.6055,0.6058,0.606,0.6188,0.6188,0,0,0,0,0,0,0.5534,0.556,0.571,0.5718,0.5638,0.5738,0.5756,0.5788,0.5884,0.5899,0.5845,0.5848,0.5978,0.5991,0.6003,0.6046,0.6056,0.6061,0.6064,0.6188,0.6188,0.6188,0,0,0,0,0,0,0.5529,0.5546,0.5704,0.5641,0.5662,0.5742,0.5777,0.5791,0.5818,0.59,0.5915,0.5858,0.5979,0.5995,0.6047,0.6052,0.6063,0.6068,0.6188,0.6188,0.6188,0.6131,0,0,0,0,0,0,0.5523,0.5544,0.5556,0.564,0.5665,0.5746,0.5777,0.5793,0.5828,0.5833,0.5916,0.593,0.598,0.6039,0.6053,0.606,0.6073,0.6188,0.6188,0.6188,0.6133,0.613,0.6126,0,0,0,0,0,0.5515,0.5535,0.5556,0.5574,0.5682,0.5746,0.576,0.5816,0.5828,0.5841,0.5893,0.5928,0.6049,0.6043,0.606,0.6069,0.6188,0.6188,0.6188,0.6135,0.613,0.6126,0,0,0,0,0,0,0.5449,0.5547,0.5572,0.5619,0.5673,0.5758,0.5776,0.581,0.5862,0.5865,0.5933,0.5952,0.5998,0.6039,0.6031,0.6104,0.6122,0.6125,0.6076,0.6072,0.6069,0.6058,0.6078,0,0,0,0,0,0.544,0.5483,0.5566,0.56,0.5626,0.5696,0.5726,0.5765,0.5824,0.5848,0.5904,0.5961,0.6012,0.6044,0.6096,0.6139,0.6159,0.6154,0.615,0.6147,0.6149,0.6176,0.6175,0.6188,0.6188,0.6188,0,0,0.5422,0.548,0.5503,0.5588,0.5635,0.5679,0.5715,0.576,0.5794,0.5855,0.5908,0.5951,0.602,0.6068,0.6092,0.6103,0.615,0.6147,0.6144,0.6148,0.6176,0.6175,0.6174,0.6188,0.6188,0.6188,0,0,0.5411,0.5459,0.5493,0.5539,0.5609,0.5656,0.5664,0.5744,0.5775,0.583,0.5877,0.5918,0.6004,0.6051,0.6086,0.6093,0.6127,0.6108,0.609,0.6116,0.6115,0.6114,0.6118,0.6118,0.611,0.611,0.611,0,0.5379,0.5447,0.5506,0.5548,0.5584,0.5642,0.5677,0.5719,0.5802,0.5827,0.5838,0.5948,0.5998,0.6058,0.606,0.6086,0.6098,0.6099,0.611,0.611,0.6111,0.6114,0.6115,0.6107,0.6108,0.6108,0.6108,0,0.5405,0.5451,0.547,0.5549,0.5587,0.5625,0.5691,0.5723,0.5759,0.5804,0.586,0.5921,0.5987,0.6004,0.6039,0.607,0.6075,0.6097,0.6116,0.6105,0.611,0.6112,0.6104,0.6105,0.6105,0.6106,0,0,0.5356,0.5467,0.5473,0.551,0.5593,0.563,0.5671,0.5735,0.5761,0.5817,0.5854,0.5926,0.5947,0.5987,0.6028,0.605,0.6053,0.607,0.6073,0.6065,0.6092,0.6075,0.6076,0.6076,0.6076,0.6077,0.6086,0,0.5357,0.5433,0.5488,0.5544,0.5588,0.5643,0.568,0.5734,0.5778,0.5822,0.5872,0.5922,0.5946,0.597,0.5995,0.6047,0.6059,0.6048,0.6112,0.6113,0.6093,0.6078,0.606,0.6066,0.6089,0.6089,0.6089,0,0.5368,0.5422,0.5482,0.556,0.5581,0.5612,0.5676,0.5717,0.5781,0.5811,0.5855,0.5898,0.5945,0.5959,0.6026,0.6016,0.6046,0.6076,0.6077,0.6086,0.6101,0.6087,0.6069,0.607,0.6093,0.6093,0.6092,0,0.5327,0.5415,0.5463,0.5492,0.5585,0.5606,0.5645,0.5709,0.5744,0.5799,0.5823,0.5883,0.5916,0.5962,0.6019,0.6025,0.608,0.6099,0.6107,0.6106,0.6117,0.6115,0.6104,0.6134,0.6134,0.6134,0.6134,0,0.5323,0.5358,0.5446,0.5475,0.5515,0.5579,0.5617,0.5662,0.5718,0.5757,0.5809,0.5845,0.5918,0.5963,0.6009,0.6057,0.6072,0.6098,0.611,0.6094,0.609,0.6114,0.6116,0.6135,0.6135,0.6135,0.6135,0,0.5284,0.5344,0.54,0.5483,0.5505,0.5531,0.5602,0.5633,0.568,0.5729,0.5745,0.5818,0.5874,0.5936,0.6012,0.6043,0.6089,0.6105,0.6067,0.6074,0.6078,0.6077,0.6083,0.6087,0.6113,0.6113,0.6113,0,0.5278,0.5306,0.5392,0.5422,0.546,0.5507,0.5544,0.5607,0.5642,0.5717,0.5739,0.5799,0.585,0.5937,0.5997,0.6056,0.6075,0.6073,0.6084,0.6068,0.6076,0.6074,0.6077,0.607,0.6069,0.6069,0.6068,0,0.526,0.5289,0.5339,0.5399,0.544,0.5491,0.5544,0.5565,0.564,0.5677,0.5735,0.5774,0.5852,0.5911,0.5978,0.6019,0.6056,0.6064,0.6069,0.6053,0.603,0.6043,0.6058,0.6064,0.6064,0.6065,0.6065,0.6065,0.5238,0.5266,0.5331,0.5385,0.5431,0.548,0.5513,0.5564,0.5613,0.5681,0.5716,0.5773,0.5837,0.593,0.5971,0.6017,0.6029,0.6036,0.6038,0.6039,0.6035,0.6022,0.6029,0.603,0.603,0.603,0.603,0,0.5224,0.5269,0.5318,0.539,0.5432,0.5463,0.5523,0.5557,0.5607,0.5663,0.5712,0.5779,0.5836,0.5902,0.5963,0.5988,0.6007,0.6002,0.6001,0.601,0.602,0.601,0.5986,0.5986,0.5986,0.5986,0.5986,0.5986,0.5221,0.527,0.5307,0.5379,0.5424,0.5481,0.5512,0.5557,0.5603,0.5675,0.5722,0.5765,0.5825,0.5891,0.5946,0.5964,0.5984,0.5975,0.5997,0.6006,0.6009,0.6013,0.6004,0.5979,0.5979,0.5984,0.5984,0.5984]},{"header":{"parameterUnit":"m.s-1","parameterCategory":1,"la1":30.2991,"la2":30.254,"lo1":-89.0895,"lo2":-89.0444,"dy":0.0017,"dx":0.0017,"nx":28,"ny":28,"refTime":"2025-05-24T21:00:00:Z","depth":0,"parameterNumber":3,"parameterNumberName":"V-component_of_WINDS"},"data":[0,0,0,0,0,0,0,0,0,0,0,0,0,0,0,0,0,0,0,0,0,0,0,0,0,0,0,0,0,0,0,0,0,0,0,0,0,0,0,0,0,0,0,0,0,0,0,0,0,0,0,0,0,0,0,0,0,0,2.8974,2.8974,0,2.8969,2.8969,2.8969,2.8962,2.8962,2.8962,2.8962,2.8955,2.8955,2.8955,0,0,0,0,0,0,0,0,0,0,0,0,0,2.8977,2.8977,2.8974,2.8974,2.8974,2.8969,2.8969,2.8969,2.8962,2.8962,2.8962,2.8962,2.8956,2.8955,2.8955,0,0,0,0,0,0,0,0,0,0,0,0,0,2.8974,2.8977,2.8974,2.897,2.897,2.8969,2.8969,2.8969,2.8962,2.8962,2.8962,2.8962,2.8956,2.8955,2.8955,2.8958,0,0,2.8955,2.8955,0,0,0,0,0,0,0,0,2.8974,2.8974,2.8971,2.897,2.897,2.8966,2.8968,2.8965,2.8962,2.8965,2.8962,2.8962,2.8959,2.8959,2.8958,2.8958,2.8957,2.8955,2.8955,2.8955,2.8955,0,0,0,0,0,0,0,2.8974,2.8974,2.8972,2.8971,2.897,2.8968,2.8968,2.8967,2.8963,2.8965,2.8964,2.8964,2.8959,2.8958,2.8958,2.8957,2.8955,2.8955,2.8955,2.8955,2.8959,2.8959,0,0,0,0,0,0,2.8975,2.8974,2.8972,2.8972,2.8972,2.8968,2.8968,2.8967,2.8963,2.8962,2.8964,2.8964,2.8958,2.8958,2.8958,2.8961,2.8955,2.8955,2.8955,2.8959,2.8959,2.8959,0,0,0,0,0,0,2.8975,2.8975,2.8972,2.8973,2.8972,2.8968,2.8968,2.8967,2.8967,2.8962,2.8962,2.8964,2.8958,2.8958,2.8958,2.896,2.8955,2.8955,2.8959,2.8959,2.8959,2.8966,0,0,0,0,0,0,2.8976,2.8975,2.8976,2.8973,2.8972,2.8973,2.8968,2.8967,2.8967,2.8966,2.8962,2.8962,2.8958,2.8958,2.8958,2.896,2.8955,2.8958,2.8959,2.8959,2.8966,2.8967,2.8968,0,0,0,0,0,2.8976,2.8978,2.8977,2.8976,2.8974,2.8973,2.8973,2.8969,2.8967,2.8968,2.8965,2.8962,2.896,2.8958,2.8958,2.896,2.8958,2.8959,2.8959,2.8966,2.8967,2.8968,0,0,0,0,0,0,2.8981,2.8978,2.8976,2.8977,2.8976,2.8972,2.8973,2.8971,2.8969,2.8969,2.8964,2.8963,2.8964,2.8962,2.896,2.8962,2.8959,2.8959,2.8964,2.8965,2.8966,2.8966,2.8954,0,0,0,0,0,2.8983,2.8983,2.898,2.8981,2.8981,2.8977,2.8977,2.8974,2.8972,2.8972,2.8969,2.8967,2.8966,2.8965,2.8964,2.8966,2.8965,2.8967,2.8968,2.8969,2.8969,2.897,2.8971,2.8961,2.8961,2.8961,0,0,2.8986,2.8984,2.8984,2.8983,2.8981,2.8981,2.8977,2.8977,2.8977,2.8971,2.8972,2.897,2.8967,2.8968,2.8969,2.8967,2.8972,2.8969,2.897,2.897,2.8971,2.8972,2.8973,2.8961,2.8961,2.8961,0,0,2.8991,2.899,2.8991,2.899,2.8988,2.8986,2.8986,2.8983,2.8982,2.8982,2.8978,2.8978,2.8977,2.8975,2.8974,2.898,2.8976,2.8979,2.8984,2.8985,2.8986,2.8987,2.8989,2.899,2.898,2.898,2.898,0,2.8995,2.8995,2.8992,2.8993,2.8992,2.8988,2.899,2.8988,2.8986,2.8986,2.8984,2.8982,2.898,2.8981,2.8982,2.8982,2.8982,2.898,2.8986,2.8987,2.8988,2.899,2.8991,2.898,2.898,2.898,2.898,0,2.9,2.9001,2.9002,2.9001,2.9,2.9001,2.8998,2.8998,2.8996,2.8994,2.8995,2.8992,2.8991,2.8991,2.8988,2.8991,2.899,2.8987,2.8983,2.8989,2.8991,2.8992,2.8981,2.8981,2.8981,2.898,0,0,2.9008,2.9006,2.9006,2.9006,2.9004,2.9004,2.9005,2.9004,2.9005,2.9003,2.9004,2.9003,2.9001,2.9,2.8997,2.8998,2.9003,2.8995,2.8995,2.8997,2.9007,2.901,2.9011,2.9001,2.9001,2.9001,2.9008,0,2.9013,2.9016,2.9013,2.9016,2.9016,2.9012,2.9013,2.9012,2.901,2.901,2.9008,2.9008,2.9004,2.9004,2.9005,2.9002,2.9005,2.9002,2.9002,2.9002,2.9003,2.9012,2.9014,2.902,2.9008,2.9008,2.9009,0,2.902,2.9019,2.9022,2.9021,2.9021,2.9022,2.9021,2.9021,2.902,2.9019,2.9018,2.9015,2.9016,2.9012,2.9013,2.9011,2.9011,2.901,2.901,2.901,2.9006,2.9012,2.9022,2.9023,2.901,2.901,2.901,0,2.9026,2.9026,2.9028,2.9028,2.9026,2.9027,2.9026,2.9024,2.9024,2.9024,2.9024,2.9023,2.9023,2.9022,2.9019,2.9016,2.9021,2.9016,2.9019,2.902,2.902,2.902,2.9031,2.902,2.902,2.902,2.902,0,2.9032,2.9034,2.9031,2.9032,2.9034,2.9031,2.9034,2.9032,2.9031,2.9032,2.9028,2.9029,2.9025,2.9025,2.9023,2.9024,2.9024,2.9023,2.9022,2.9023,2.9024,2.9023,2.9023,2.902,2.902,2.902,2.902,0,2.9039,2.9037,2.9039,2.9038,2.9037,2.9039,2.9038,2.9039,2.9037,2.9038,2.9038,2.9035,2.9035,2.9032,2.9032,2.903,2.9033,2.9031,2.9034,2.9033,2.9036,2.9036,2.9047,2.9048,2.9037,2.9037,2.9037,0,2.9043,2.9045,2.9044,2.9044,2.9044,2.9045,2.9045,2.9042,2.9043,2.9042,2.9043,2.9043,2.9043,2.9043,2.9041,2.9041,2.9039,2.9043,2.9039,2.904,2.904,2.904,2.904,2.9044,2.9044,2.9044,2.9044,0,2.9051,2.905,2.9051,2.9051,2.9052,2.9052,2.9052,2.9052,2.905,2.905,2.9051,2.9051,2.9051,2.9051,2.905,2.9049,2.9046,2.9045,2.9046,2.9047,2.9049,2.9049,2.9036,2.9045,2.9045,2.9045,2.9045,2.9045,2.9057,2.9058,2.9058,2.9059,2.9059,2.9059,2.906,2.9059,2.906,2.906,2.9058,2.9059,2.9058,2.9057,2.9056,2.9057,2.9055,2.9056,2.9056,2.9057,2.9058,2.9049,2.9057,2.9057,2.9057,2.9057,2.9057,0,2.9065,2.9065,2.9066,2.9066,2.9067,2.9065,2.9065,2.9066,2.9067,2.9066,2.9067,2.9068,2.9068,2.9066,2.9066,2.9067,2.9066,2.9067,2.9067,2.9067,2.9059,2.9059,2.9068,2.9068,2.9068,2.9068,2.9068,2.9068,2.9069,2.9072,2.9071,2.9073,2.9073,2.9075,2.9075,2.9075,2.9075,2.9076,2.9077,2.9076,2.9075,2.9075,2.9075,2.9075,2.9075,2.9077,2.9076,2.9069,2.9068,2.9067,2.9066,2.9077,2.9077,2.9084,2.9084,2.9084]}]]